Wind_Speed
19 19 20 21 22 22 22 23 23 23 22 21 19 19 18 17 16 16 17 19 20 21 23 25 28 29 31 33 34 35 35 33 32 32 32 31 29 28 28 27 26 26 25
18 19 20 20 21 22 22 23 23 23 22 21 20 19 18 17 16 15 15 16 18 19 20 22 24 27 29 31 32 34 35 35 35 33 33 33 31 31 30 29 29 28 28
18 19 19 20 22 22 23 23 23 23 22 21 20 19 18 17 16 15 14 15 16 17 18 20 22 24 26 29 31 32 35 36 35 35 35 34 33 34 32 33 32 32 30
17 18 19 20 21 22 23 24 24 23 22 22 20 19 19 18 17 15 14 14 14 15 17 18 19 21 24 26 29 31 33 35 36 36 36 36 34 35 34 34 35 35 34
16 18 19 20 21 22 23 24 24 23 23 22 21 21 20 19 18 17 15 15 14 14 15 16 18 20 22 24 27 29 32 34 36 36 37 37 36 36 36 35 36 36 36
16 17 19 20 21 22 23 23 23 23 23 23 22 21 21 20 19 18 17 16 15 14 14 15 16 18 20 22 25 28 31 32 34 35 36 36 36 37 37 36 35 36 37
15 17 18 19 21 22 22 23 23 23 23 24 23 22 22 21 20 19 18 17 15 15 15 15 16 17 19 20 23 25 28 31 32 34 36 37 38 38 38 38 38 37 37
15 16 17 19 20 21 22 23 23 24 24 24 24 23 23 22 21 20 20 18 17 16 15 15 16 17 18 20 21 23 25 28 30 32 34 36 37 38 38 38 38 38 38
14 16 17 19 20 21 22 23 23 24 25 25 25 24 24 23 23 22 21 20 19 18 17 16 16 17 18 19 21 22 24 27 29 31 33 35 36 38 38 38 38 38 38
14 15 17 18 19 20 21 22 23 24 25 25 25 25 25 25 24 24 23 22 21 20 19 18 17 17 17 17 18 20 22 25 27 29 31 33 35 37 38 38 39 39 38
14 15 16 17 19 20 21 22 23 24 25 25 26 26 26 26 26 25 25 24 23 22 21 19 17 16 16 16 16 18 20 22 25 27 29 31 33 36 38 39 39 40 40
14 15 16 18 18 19 20 21 22 23 24 25 25 26 26 26 26 26 27 26 26 24 22 20 19 17 15 14 14 16 17 19 21 24 27 29 32 35 36 38 39 39 40
14 16 17 18 19 19 20 20 21 22 23 24 25 25 26 26 26 27 27 27 27 26 24 22 20 18 17 15 14 14 15 16 18 21 24 27 29 32 35 36 38 39 40
14 16 17 18 19 19 20 20 21 21 22 23 24 25 25 26 26 27 27 28 28 26 25 23 22 20 18 16 14 14 14 14 16 18 21 23 27 29 32 33 35 38 39
15 16 17 18 19 19 20 21 21 22 22 23 24 24 25 26 26 26 27 27 28 27 26 24 23 21 19 17 16 14 13 12 13 16 18 21 24 26 28 31 33 35 37
16 17 18 19 20 20 20 21 22 22 23 23 24 24 25 25 26 26 27 27 27 27 26 25 24 23 21 19 17 15 13 11 11 13 16 18 21 24 26 28 31 33 34
17 18 19 19 20 21 21 22 22 23 23 23 24 24 25 25 26 26 27 27 27 27 26 26 25 24 23 20 18 15 13 11 11 12 14 16 18 21 24 26 29 30 32
18 18 19 20 21 21 22 22 23 23 24 24 24 24 25 25 25 26 26 27 27 27 26 26 25 25 24 23 20 16 14 12 11 11 12 14 16 18 20 22 25 28 30
18 19 20 21 22 22 23 23 24 24 25 25 25 25 25 26 26 26 26 26 27 27 27 26 25 25 24 23 21 18 15 13 11 10 10 11 12 14 17 19 22 25 27
19 20 21 22 23 23 24 25 25 25 26 26 26 26 26 26 26 26 26 26 26 26 27 27 26 25 24 23 21 19 16 14 12 10 9 10 10 12 14 17 19 22 24
21 22 23 24 24 25 26 26 26 26 27 27 27 27 27 27 26 26 26 26 26 26 26 26 26 25 24 23 21 19 17 16 13 11 9 9 10 12 13 15 17 19 22
22 23 24 25 26 26 27 27 27 27 28 28 27 27 27 27 27 26 26 26 26 26 26 25 25 25 24 23 22 20 18 17 15 13 11 10 10 11 11 13 15 17 19
23 25 26 27 27 27 28 29 29 29 29 28 28 27 27 27 27 27 27 26 26 25 25 25 25 25 24 23 22 20 19 17 16 14 12 11 10 10 10 11 13 15 17
25 27 28 29 30 30 30 30 30 30 30 29 28 28 28 27 28 28 27 27 27 26 25 25 24 24 24 23 22 20 19 18 17 15 13 12 11 11 11 11 12 13 15
27 29 30 31 32 32 32 31 31 31 30 29 29 29 29 28 28 28 28 28 28 27 27 26 25 25 24 24 23 22 20 19 18 16 14 13 12 12 11 11 12 12 14
29 31 32 33 33 33 32 32 32 31 30 29 29 29 29 29 29 29 28 29 29 29 28 28 27 26 26 25 24 23 22 20 19 18 16 15 14 13 13 12 12 12 13
Wind_Direction
352 353 352 352 352 352 351 351 349 346 344 342 337 331 326 320 310 297 287 280 276 272 267 261 257 254 251 250 248 246 245 245 244 242 241 238 235 231 228 227 227 226 223
355 357 357 357 356 356 355 354 353 352 350 348 346 341 337 331 324 313 300 289 282 276 270 265 259 255 251 249 247 246 245 244 244 242 241 240 237 233 231 228 227 227 226
359 360 360 360 360 360 359 357 356 356 355 354 352 350 347 343 336 327 315 301 290 283 276 269 262 256 253 250 247 245 245 243 243 242 241 241 240 237 234 232 230 229 228
2 3 2 2 2 3 2 2 1 1 360 359 358 355 352 349 344 337 329 316 303 292 283 274 267 261 256 252 248 246 245 244 244 243 242 241 240 238 236 234 233 232 230
5 5 5 5 5 5 4 4 5 5 4 2 1 359 356 353 349 342 336 329 317 305 293 282 273 267 261 256 251 247 246 244 244 243 241 241 240 239 238 235 235 233 231
7 7 8 8 8 8 8 8 8 7 7 5 3 2 360 358 355 350 344 336 327 316 305 293 283 275 267 260 255 249 247 245 243 241 241 240 239 239 237 236 237 234 231
9 10 10 10 10 10 10 10 10 9 8 7 6 5 4 3 1 358 354 346 337 324 314 304 293 283 274 266 259 253 249 247 244 241 238 239 238 239 237 236 237 235 232
8 9 9 9 10 11 12 12 11 11 10 9 8 8 7 6 4 1 357 352 345 335 322 312 303 292 282 272 264 257 251 247 245 242 238 237 236 236 235 236 236 236 234
6 6 7 9 10 11 12 12 12 12 11 11 10 10 10 9 6 2 359 355 349 343 333 322 311 300 291 281 270 262 255 249 246 243 239 236 235 236 235 235 235 235 234
5 5 6 7 8 9 10 11 11 11 12 12 12 12 12 11 9 7 3 358 352 347 342 334 324 311 299 288 276 266 258 252 248 245 240 237 235 235 234 235 235 234 233
2 2 2 2 3 4 6 7 8 9 10 10 11 11 11 10 9 7 6 3 358 352 347 342 334 325 313 298 283 272 262 254 249 245 242 239 236 235 236 236 236 234 233
359 358 358 358 358 360 1 3 4 6 7 8 8 8 8 8 8 7 6 4 2 359 354 349 343 336 327 313 295 281 270 260 252 246 242 239 237 236 236 237 237 236 236
353 354 354 354 355 356 357 358 360 2 3 5 6 6 5 5 5 5 4 4 2 1 359 355 350 344 336 326 311 294 281 268 256 248 243 241 239 238 236 237 238 238 238
347 348 349 350 351 352 353 354 354 355 357 358 359 1 2 2 2 2 3 2 2 1 360 358 355 351 344 338 328 314 295 277 262 252 245 242 240 239 238 238 238 238 238
340 342 343 345 346 348 349 350 351 351 352 353 354 356 357 358 359 360 0 1 1 1 0 359 357 355 351 344 337 329 315 291 269 257 251 246 243 242 240 239 238 238 238
335 337 338 340 341 342 344 345 347 348 348 350 351 352 353 354 356 357 358 359 360 0 0 360 359 357 354 349 342 335 325 306 281 264 257 252 248 244 242 241 240 240 239
331 333 334 336 337 339 340 341 342 343 345 346 347 348 350 351 352 354 355 356 357 358 358 358 358 357 356 353 348 341 332 319 297 279 267 260 254 248 244 242 240 240 239
327 329 331 332 334 335 336 337 338 338 339 340 342 343 344 346 347 349 351 353 354 355 356 356 356 356 356 355 350 347 341 328 311 294 280 270 260 252 246 243 241 240 240
323 326 327 329 330 331 331 332 333 334 335 336 337 338 339 341 343 344 346 349 350 352 354 355 356 355 355 356 355 351 347 339 325 309 293 279 267 257 250 247 244 242 240
320 322 323 324 325 326 327 328 329 329 330 331 333 335 336 338 339 340 341 343 346 348 350 351 353 354 353 353 354 353 349 345 337 322 306 293 281 268 259 253 249 244 242
316 318 319 320 321 322 323 324 325 326 327 328 329 330 332 333 334 336 337 339 341 343 345 347 349 351 352 353 353 353 351 349 344 335 320 304 293 281 269 260 254 248 244
311 314 315 317 318 318 319 320 321 322 323 324 325 326 328 329 330 332 333 335 336 338 340 342 344 347 349 350 351 351 350 349 346 340 331 317 305 293 281 266 260 257 250
308 310 313 314 315 316 317 317 318 318 319 320 321 322 324 325 327 328 329 330 331 333 334 336 338 341 343 345 347 347 347 345 343 338 332 321 313 305 292 277 269 264 257
305 307 310 312 313 314 314 315 316 316 316 317 318 319 320 322 323 324 326 327 327 328 329 330 332 334 336 338 341 341 341 341 339 334 329 324 318 310 301 287 276 270 263
303 306 308 310 311 312 312 313 314 314 314 314 315 315 316 318 319 321 322 323 323 323 325 325 326 327 328 329 332 334 334 333 332 330 326 323 316 311 306 297 287 277 269
302 304 306 308 310 310 311 311 312 312 312 312 312 313 314 314 315 317 318 319 320 320 320 320 320 321 321 321 322 324 326 326 326 324 318 314 313 310 305 299 293 287 279
Height
5851 5848 5844 5840 5836 5832 5827 5822 5818 5813 5809 5805 5801 5798 5795 5793 5791 5789 5789 5789 5789 5790 5792 5794 5796 5799 5802 5806 5810 5813 5818 5822 5826 5830 5834 5838 5842 5846 5850 5854 5857 5861 5864
5851 5847 5843 5839 5835 5831 5826 5821 5817 5812 5807 5803 5800 5796 5793 5790 5788 5786 5785 5784 5784 5784 5785 5787 5789 5791 5795 5798 5802 5805 5809 5814 5818 5822 5826 5831 5836 5840 5843 5848 5852 5855 5858
5851 5847 5843 5839 5835 5830 5826 5821 5816 5811 5807 5803 5799 5795 5791 5788 5786 5784 5782 5781 5780 5780 5780 5781 5783 5785 5787 5790 5794 5797 5801 5806 5810 5814 5819 5823 5828 5832 5837 5841 5845 5849 5852
5851 5847 5843 5839 5835 5830 5826 5821 5816 5811 5806 5802 5798 5794 5791 5787 5784 5782 5780 5778 5777 5776 5776 5776 5777 5778 5780 5783 5786 5789 5793 5797 5802 5806 5811 5816 5820 5825 5830 5834 5838 5842 5846
5851 5848 5844 5840 5835 5831 5826 5821 5816 5811 5807 5802 5798 5794 5790 5787 5783 5780 5778 5776 5774 5772 5772 5771 5772 5773 5774 5776 5778 5781 5785 5789 5793 5797 5802 5807 5812 5816 5821 5826 5831 5835 5839
5852 5848 5844 5840 5836 5831 5826 5822 5817 5812 5807 5803 5798 5794 5790 5786 5782 5779 5776 5774 5771 5770 5768 5767 5767 5767 5768 5769 5771 5773 5776 5780 5784 5789 5793 5798 5803 5808 5813 5818 5822 5827 5831
5852 5848 5845 5841 5836 5832 5827 5823 5818 5813 5808 5803 5799 5794 5790 5786 5782 5778 5775 5772 5769 5767 5765 5764 5763 5762 5762 5763 5764 5766 5768 5772 5775 5780 5784 5789 5794 5798 5803 5809 5814 5818 5823
5852 5849 5845 5841 5837 5833 5828 5823 5819 5814 5809 5804 5799 5794 5790 5786 5782 5778 5774 5771 5768 5765 5763 5761 5759 5758 5757 5757 5758 5759 5761 5763 5767 5770 5775 5779 5785 5789 5794 5799 5805 5810 5815
5852 5849 5846 5842 5838 5833 5829 5824 5820 5815 5810 5805 5800 5795 5791 5786 5782 5778 5774 5770 5766 5763 5760 5757 5755 5753 5752 5751 5751 5752 5753 5755 5758 5762 5766 5770 5775 5780 5785 5790 5795 5801 5806
5852 5849 5846 5842 5838 5834 5830 5825 5821 5816 5811 5806 5801 5796 5792 5787 5782 5778 5773 5769 5765 5761 5757 5754 5751 5749 5747 5745 5744 5745 5746 5748 5750 5753 5757 5762 5767 5772 5777 5781 5786 5792 5797
5852 5849 5846 5842 5838 5834 5830 5826 5821 5817 5812 5807 5802 5797 5792 5788 5783 5778 5773 5768 5764 5759 5755 5751 5748 5744 5742 5740 5739 5739 5739 5741 5743 5746 5749 5753 5758 5763 5767 5772 5777 5782 5788
5852 5849 5845 5842 5838 5834 5830 5826 5822 5817 5813 5808 5803 5798 5793 5788 5783 5778 5773 5768 5763 5757 5753 5748 5744 5741 5738 5735 5734 5733 5733 5734 5736 5738 5741 5745 5749 5754 5758 5763 5768 5773 5779
5851 5848 5845 5841 5838 5834 5830 5826 5822 5817 5813 5808 5803 5799 5794 5789 5783 5778 5773 5767 5762 5757 5751 5746 5742 5738 5735 5732 5730 5729 5728 5728 5730 5732 5734 5737 5741 5745 5750 5754 5759 5764 5769
5850 5847 5844 5841 5837 5833 5829 5825 5821 5817 5813 5808 5804 5799 5794 5789 5783 5778 5773 5767 5761 5756 5750 5745 5741 5736 5733 5730 5727 5725 5723 5723 5724 5726 5728 5731 5734 5738 5741 5746 5750 5755 5760
5849 5846 5843 5839 5836 5832 5828 5824 5820 5816 5812 5807 5803 5798 5793 5788 5783 5778 5773 5767 5761 5755 5750 5745 5740 5735 5731 5728 5725 5722 5720 5719 5719 5720 5722 5725 5728 5730 5733 5737 5741 5745 5750
5847 5844 5841 5838 5834 5831 5827 5823 5819 5815 5811 5806 5802 5797 5793 5788 5783 5778 5772 5767 5761 5755 5750 5745 5739 5735 5730 5726 5723 5720 5717 5716 5716 5716 5718 5719 5721 5723 5726 5729 5733 5737 5741
5845 5842 5839 5836 5832 5829 5825 5821 5817 5813 5809 5805 5800 5796 5791 5787 5782 5777 5772 5766 5761 5755 5750 5744 5739 5734 5729 5725 5721 5718 5715 5714 5713 5713 5713 5714 5715 5717 5719 5722 5725 5729 5732
5842 5840 5837 5833 5830 5826 5823 5819 5815 5811 5807 5803 5799 5794 5790 5785 5781 5776 5771 5766 5760 5755 5750 5744 5739 5734 5729 5724 5720 5716 5713 5712 5710 5709 5709 5709 5710 5711 5713 5715 5718 5721 5724
5839 5837 5834 5831 5827 5824 5820 5816 5813 5809 5805 5801 5796 5792 5788 5784 5779 5774 5770 5765 5760 5755 5749 5744 5738 5733 5728 5723 5719 5715 5712 5710 5707 5706 5705 5705 5705 5706 5708 5710 5712 5714 5717
5836 5833 5830 5827 5824 5821 5817 5813 5810 5806 5802 5798 5794 5790 5785 5781 5777 5772 5768 5763 5759 5754 5749 5743 5738 5733 5728 5723 5719 5715 5711 5708 5706 5704 5703 5702 5702 5702 5703 5704 5706 5708 5710
5832 5829 5827 5824 5820 5817 5813 5810 5806 5802 5798 5794 5790 5786 5782 5778 5774 5770 5765 5761 5757 5752 5748 5743 5738 5733 5727 5723 5718 5714 5711 5708 5705 5703 5701 5700 5699 5699 5699 5700 5701 5703 5704
5828 5825 5823 5819 5816 5813 5809 5806 5802 5798 5794 5791 5787 5783 5779 5775 5771 5767 5763 5758 5754 5750 5746 5742 5737 5732 5727 5723 5718 5714 5711 5707 5704 5702 5700 5699 5697 5697 5696 5697 5697 5698 5699
5823 5821 5818 5815 5811 5808 5805 5801 5797 5793 5790 5786 5782 5779 5775 5771 5767 5763 5759 5755 5751 5747 5743 5739 5735 5731 5727 5722 5718 5714 5710 5707 5704 5701 5699 5697 5696 5694 5694 5693 5693 5693 5694
5818 5815 5812 5809 5806 5802 5799 5795 5791 5788 5784 5781 5777 5774 5770 5767 5763 5759 5755 5752 5748 5744 5740 5736 5733 5729 5725 5721 5717 5713 5709 5706 5703 5700 5698 5696 5694 5693 5691 5690 5690 5690 5690
5812 5809 5806 5803 5800 5796 5793 5789 5785 5782 5778 5775 5772 5768 5765 5761 5758 5754 5751 5747 5743 5739 5736 5733 5729 5726 5722 5719 5715 5711 5708 5705 5702 5699 5696 5694 5693 5691 5689 5688 5687 5686 5686
5806 5803 5800 5796 5793 5789 5786 5782 5778 5775 5772 5769 5765 5762 5759 5756 5752 5749 5746 5742 5738 5735 5731 5727 5724 5721 5718 5715 5712 5708 5705 5702 5699 5697 5694 5692 5690 5688 5687 5685 5684 5683 5682